Satellite: MET-3/5
Catalog number: 21655
Epoch time:      06048.71327838
Element set:      40
Inclination:      082.5599 deg
RA of node:       345.2046 deg
Eccentricity:    0.0013112
Arg of perigee:   345.0466 deg
Mean anomaly:     015.0280 deg
Mean motion:   13.17003151 rev/day
Decay rate:        5.1e-07 rev/day^2
Epoch rev:           69763
Checksum:              272

Satellite: MET-2/21
Catalog number: 22782
Epoch time:      06047.62653396
Element set:    0432
Inclination:      082.5444 deg
RA of node:       067.0921 deg
Eccentricity:    0.0023215
Arg of perigee:   154.5501 deg
Mean anomaly:     205.6807 deg
Mean motion:   13.83602029 rev/day
Decay rate:        9.4e-07 rev/day^2
Epoch rev:           62937
Checksum:              291

Satellite: OKEAN-4
Catalog number: 23317
Epoch time:      06048.73878883
Element set:     867
Inclination:      082.5381 deg
RA of node:       028.4048 deg
Eccentricity:    0.0023723
Arg of perigee:   050.7742 deg
Mean anomaly:     309.5580 deg
Mean motion:   14.82309552 rev/day
Decay rate:       1.86e-06 rev/day^2
Epoch rev:           61228
Checksum:              319

Satellite: NOAA-14
Catalog number: 23455
Epoch time:      06048.40123740
Element set:     999
Inclination:      099.0553 deg
RA of node:       105.3062 deg
Eccentricity:    0.0009595
Arg of perigee:   034.0671 deg
Mean anomaly:     326.1090 deg
Mean motion:   14.13637699 rev/day
Decay rate:       2.04e-06 rev/day^2
Epoch rev:           57414
Checksum:              294

Satellite: SICH-1
Catalog number: 23657
Epoch time:      06048.78739685
Element set:     673
Inclination:      082.5318 deg
RA of node:       169.2407 deg
Eccentricity:    0.0025144
Arg of perigee:   038.6262 deg
Mean anomaly:     321.6749 deg
Mean motion:   14.81312641 rev/day
Decay rate:       1.56e-06 rev/day^2
Epoch rev:           56431
Checksum:              314

Satellite: NOAA-15
Catalog number: 25338
Epoch time:      06048.48137366
Element set:     400
Inclination:      098.5157 deg
RA of node:       054.3662 deg
Eccentricity:    0.0010883
Arg of perigee:   007.9771 deg
Mean anomaly:     352.1580 deg
Mean motion:   14.24563760 rev/day
Decay rate:        2.5e-07 rev/day^2
Epoch rev:           40367
Checksum:              299

Satellite: RESURS
Catalog number: 25394
Epoch time:      06047.92925858
Element set:    0334
Inclination:      098.5099 deg
RA of node:       114.7988 deg
Eccentricity:    0.0001657
Arg of perigee:   137.0729 deg
Mean anomaly:     223.0585 deg
Mean motion:   14.24095163 rev/day
Decay rate:       -2.4e-07 rev/day^2
Epoch rev:           39528
Checksum:              328

Satellite: FENGYUN1
Catalog number: 25730
Epoch time:      06048.56279852
Element set:     653
Inclination:      098.6192 deg
RA of node:       045.6679 deg
Eccentricity:    0.0015026
Arg of perigee:   118.9365 deg
Mean anomaly:     241.3326 deg
Mean motion:   14.11805432 rev/day
Decay rate:      -2.24e-06 rev/day^2
Epoch rev:           34913
Checksum:              301

Satellite: OKEAN-0
Catalog number: 25860
Epoch time:      06047.66421571
Element set:    0672
Inclination:      097.7418 deg
RA of node:       067.5717 deg
Eccentricity:    0.0001536
Arg of perigee:   094.3968 deg
Mean anomaly:     265.7423 deg
Mean motion:   14.73337588 rev/day
Decay rate:        5.2e-07 rev/day^2
Epoch rev:           35400
Checksum:              316

Satellite: NOAA-16
Catalog number: 26536
Epoch time:      06048.48984915
Element set:     752
Inclination:      099.0513 deg
RA of node:       013.7951 deg
Eccentricity:    0.0011224
Arg of perigee:   095.7342 deg
Mean anomaly:     264.5109 deg
Mean motion:   14.12314953 rev/day
Decay rate:      -1.64e-06 rev/day^2
Epoch rev:           27868
Checksum:              315

Satellite: NOAA-17
Catalog number: 27453
Epoch time:      06048.42095947
Element set:     778
Inclination:      098.6339 deg
RA of node:       122.9072 deg
Eccentricity:    0.0012550
Arg of perigee:   066.1429 deg
Mean anomaly:     294.1039 deg
Mean motion:   14.23751083 rev/day
Decay rate:        4.1e-07 rev/day^2
Epoch rev:           18973
Checksum:              317

Satellite: NOAA-18
Catalog number: 28654
Epoch time:      06048.36286546
Element set:     364
Inclination:      098.7766 deg
RA of node:       354.2824 deg
Eccentricity:    0.0013786
Arg of perigee:   198.2230 deg
Mean anomaly:     161.8456 deg
Mean motion:   14.10929616 rev/day
Decay rate:      -1.43e-06 rev/day^2
Epoch rev:            3848
Checksum:              338

/EX
SB KEPS @ AMSAT  $ORB06048.M
Orbital Elements  06048.MISC

HR AMSAT ORBITAL ELEMENTS FOR MANNED AND MISCELLANEOUS SATELLITES
FROM WA5QGD FORT WORTH,TX February 17, 2006
Send SUBSCRIBE KEPS/UNSUBSCRIBE KEPS to majordomo@amsat.org only
BID: ORB06048.M
TO ALL RADIO AMATEURS BT

Satellite: HUBBLE
Catalog number: 20580
Epoch time:      06048.59806359
Element set:     548
Inclination:      028.4678 deg
RA of node:       109.4275 deg
Eccentricity:    0.0003426
Arg of perigee:   352.0720 deg
Mean anomaly:     007.9822 deg
Mean motion:   14.99965501 rev/day
Decay rate:       4.49e-06 rev/day^2
Epoch rev:           66712
Checksum:              317

Satellite: UARS
Catalog number: 21701
Epoch time:      06047.93754288
Element set:    0692
Inclination:      056.9791 deg
RA of node:       250.1725 deg
Eccentricity:    0.0105079
Arg of perigee:   342.0539 deg
Mean anomaly:     017.6772 deg
Mean motion:   15.42162436 rev/day
Decay rate:      2.783e-05 rev/day^2
Epoch rev:           79074
Checksum:              317

